カタログに戻る

ICEYE-X39

運用中科学SSO
NORAD 60546·PAYLOAD·🇧🇷 Brazil

打ち上げ Aug 16, 2024 から Vandenberg Space Force Base

Loading…

次のパス (今後24時間)

TLE

最新Source: Space-Track

元期: Sep 14, 2026, 11:04 UTC

1 60546U 24149CG  26257.46111749  .00001617  00000-0  13477-3 0  9996
2 60546  97.6729 333.3155 0009179 190.4400 169.6634 14.99989927113502

AllMySatでICEYE-X39をリアルタイム追跡

Download on the App Store